Weather History for Du Bois, PA

Change the Weather History Date:

Wednesday, October 31, 2012

  Actual Average Record
Temperature  
Mean Temperature 35 °F 45 °F  
Max Temperature 37 °F 54 °F 72 °F (2003)
Min Temperature 32 °F 36 °F 19 °F (1975)
Degree Days  
Heating Degree Days 30 20  
Month to date heating degree days 429 495  
Since 1 July heating degree days 652 743  
Cooling Degree Days 0 0  
Month to date cooling degree days 3 2  
Year to date cooling degree days 548 362  
Moisture  
Dew Point 33 °F    
Average Humidity 91    
Maximum Humidity 96    
Minimum Humidity 85    
Precipitation  
Precipitation 0.11 in 0.11 in 0.55 in (1976)
Month to date precipitation 4.51 3.15  
Sea Level Pressure  
Sea Level Pressure 29.44 in    
Wind  
Wind Speed 10 mph (SSW)    
Max Wind Speed 21 mph    
Max Gust Speed 26 mph    
Visibility 5 miles    
Events Snow    
T = Trace of Precipitation, MM = Missing Value Source: NWS Daily Summary

Daily Weather History Graph

Daily Weather History Graph

Search for Another Location

Airport:

Trip Planner

Search our weather history database for the weather conditions in past years. The results will help you decide how hot, cold, wet, or windy it might be!

Date:

Astronomy

Oct. 31, 2012 Rise Set
Actual Time 7:46 AM EDT 6:11 PM EDT
Civil Twilight 7:17 AM EDT 6:40 PM EDT
Nautical Twilight 6:44 AM EDT 7:12 PM EDT
Astronomical Twilight 6:12 AM EDT 7:44 PM EDT
Moon 7:20 PM EDT (10/31) 9:26 AM EDT (10/31)
Length of Visible Light 11h 22m
Length of Day
10h 25m
Full, 97% of the Moon is Illuminated
Oct 31
Full
Nov 6
Last Quarter
Nov 13
New
Nov 20
First Quarter
Nov 28
Full

Hourly Weather History & Observations

Time (EDT) Temp. Windchill Dew Point Humidity Pressure Visibility Wind Dir Wind Speed Gust Speed Precip Events Conditions
12:04 AM 33.8 °F - 33.8 °F 100% 29.35 in 10.0 mi Calm Calm - N/A   Overcast
12:56 AM 34.0 °F 31.0 °F 32.0 °F 92% 29.39 in 10.0 mi South 3.5 mph - N/A   Overcast
1:56 AM 34.0 °F 31.0 °F 32.0 °F 92% 29.38 in 10.0 mi SSE 3.5 mph - N/A   Overcast
2:08 AM 33.8 °F - 33.8 °F 100% 29.35 in 10.0 mi Calm Calm - N/A   Overcast
2:56 AM 34.0 °F 31.0 °F 32.0 °F 92% 29.39 in 10.0 mi SE 3.5 mph - N/A   Overcast
3:12 AM 33.8 °F 30.8 °F 32.0 °F 93% 29.36 in 10.0 mi South 3.5 mph - N/A   Overcast
3:33 AM 33.8 °F 30.8 °F 32.0 °F 93% 29.36 in 8.0 mi South 3.5 mph - N/A   Overcast
3:56 AM 33.1 °F 28.7 °F 32.0 °F 96% 29.39 in 4.0 mi South 4.6 mph - N/A   Overcast
4:25 AM 33.8 °F 28.6 °F 32.0 °F 93% 29.36 in 2.0 mi South 5.8 mph - N/A   Overcast
4:35 AM 33.8 °F 30.8 °F 32.0 °F 93% 29.36 in 1.2 mi South 3.5 mph - N/A   Overcast
4:56 AM 33.1 °F 28.7 °F 32.0 °F 96% 29.40 in 0.8 mi SSW 4.6 mph - N/A   Mist
5:07 AM 33.8 °F 30.8 °F 32.0 °F 93% 29.37 in 1.5 mi South 3.5 mph - N/A   Overcast
5:12 AM 33.8 °F 30.8 °F 32.0 °F 93% 29.37 in 3.0 mi South 3.5 mph - 0.00 in Snow Light Snow
5:56 AM 33.1 °F - 30.9 °F 92% 29.42 in 4.0 mi Calm Calm - 0.00 in Snow Light Snow
6:45 AM 33.8 °F - 30.2 °F 87% 29.38 in 2.0 mi Calm Calm - 0.01 in Snow Light Snow
6:56 AM 33.1 °F - 30.9 °F 92% 29.42 in 2.0 mi Calm Calm - 0.01 in Snow Light Snow
7:56 AM 33.1 °F 30.0 °F 30.9 °F 92% 29.43 in 2.5 mi SE 3.5 mph - 0.03 in Snow Light Snow
8:16 AM 33.8 °F - 30.2 °F 87% 29.40 in 1.5 mi Calm Calm - 0.01 in Snow Light Snow
8:41 AM 33.8 °F - 30.2 °F 87% 29.40 in 2.0 mi Calm Calm - 0.02 in Snow Light Snow
8:52 AM 32.0 °F 28.7 °F 30.2 °F 93% 29.40 in 1.8 mi South 3.5 mph - 0.02 in Snow Light Snow
8:56 AM 33.1 °F 30.0 °F 30.9 °F 92% 29.44 in 1.8 mi South 3.5 mph - 0.02 in Snow Light Snow
9:10 AM 33.8 °F 30.8 °F 30.2 °F 87% 29.40 in 2.0 mi SSW 3.5 mph - 0.00 in   Overcast
9:25 AM 33.8 °F 28.6 °F 32.0 °F 93% 29.40 in 3.0 mi SSW 5.8 mph - 0.00 in   Overcast
9:56 AM 35.1 °F 25.2 °F 33.1 °F 92% 29.45 in 6.0 mi SW 16.1 mph 24.2 mph 0.00 in   Overcast
10:06 AM 35.6 °F 26.2 °F 32.0 °F 87% 29.41 in 7.0 mi SW 15.0 mph 24.2 mph N/A   Overcast
10:56 AM 35.1 °F 25.9 °F 32.0 °F 89% 29.46 in 6.0 mi SW 13.8 mph - N/A   Overcast
11:46 AM 33.8 °F 25.3 °F 32.0 °F 93% 29.44 in 2.5 mi SW 11.5 mph - N/A   Overcast
11:56 AM 34.0 °F 24.6 °F 32.0 °F 92% 29.48 in 3.0 mi SW 13.8 mph - N/A   Overcast
12:12 PM 33.8 °F 24.3 °F 32.0 °F 93% 29.44 in 5.0 mi SW 13.8 mph 20.7 mph N/A   Overcast
12:56 PM 35.1 °F 26.9 °F 33.1 °F 92% 29.49 in 3.0 mi SW 11.5 mph 18.4 mph 0.00 in   Overcast
1:09 PM 35.6 °F 27.5 °F 33.8 °F 93% 29.45 in 2.5 mi SW 11.5 mph 20.7 mph N/A   Overcast
1:47 PM 35.6 °F 28.6 °F 33.8 °F 93% 29.45 in 1.8 mi WSW 9.2 mph - N/A   Overcast
1:56 PM 36.0 °F 26.7 °F 34.0 °F 93% 29.49 in 1.8 mi WSW 15.0 mph 19.6 mph N/A   Overcast
2:09 PM 35.6 °F 28.0 °F 33.8 °F 93% 29.45 in 2.5 mi SW 10.4 mph - N/A   Overcast
2:41 PM 37.4 °F 29.8 °F 35.6 °F 93% 29.46 in 1.8 mi SW 11.5 mph - 0.01 in   Overcast
2:56 PM 37.0 °F 29.3 °F 35.1 °F 93% 29.49 in 2.0 mi SW 11.5 mph - 0.01 in   Overcast
3:10 PM 37.4 °F 30.8 °F 35.6 °F 93% 29.46 in 4.0 mi SW 9.2 mph - N/A   Overcast
3:56 PM 36.0 °F 28.0 °F 34.0 °F 93% 29.51 in 7.0 mi SW 11.5 mph - N/A   Overcast
4:56 PM 37.0 °F 29.8 °F 35.1 °F 93% 29.52 in 5.0 mi SW 10.4 mph 19.6 mph 0.01 in   Overcast
5:18 PM 37.4 °F 30.3 °F 35.6 °F 93% 29.48 in 5.0 mi SW 10.4 mph - 0.00 in   Overcast
5:56 PM 37.0 °F 28.5 °F 35.1 °F 93% 29.53 in 6.0 mi WSW 13.8 mph 23.0 mph 0.01 in   Overcast
6:27 PM 37.4 °F 28.5 °F 35.6 °F 93% 29.50 in 10.0 mi WSW 15.0 mph - N/A   Overcast
6:56 PM 37.0 °F 28.9 °F 35.1 °F 93% 29.55 in 10.0 mi SW 12.7 mph 21.9 mph N/A   Overcast
7:56 PM 37.0 °F 27.7 °F 34.0 °F 89% 29.56 in 10.0 mi WSW 16.1 mph - 0.01 in   Overcast
8:56 PM 37.0 °F 26.7 °F 35.1 °F 93% 29.57 in 9.0 mi WSW 19.6 mph 25.3 mph N/A   Overcast
9:47 PM 37.4 °F 28.2 °F 35.6 °F 93% 29.53 in 10.0 mi WSW 16.1 mph - N/A   Overcast
9:56 PM 37.0 °F 28.1 °F 35.1 °F 93% 29.57 in 10.0 mi WSW 15.0 mph 20.7 mph N/A   Overcast
10:56 PM 37.0 °F 28.5 °F 35.1 °F 93% 29.58 in 10.0 mi WSW 13.8 mph 25.3 mph N/A   Overcast